When you browse on this site, cookies collect data to enhance your experience and personalize the content and advertising you see.
Visit our Privacy Policy to learn more. By continuing to use the site, you agree to this use of cookies and data.
  • In Hungary
  • List of Countries
  • For 7 days
  • Water Temperature
  • Weather Map
  • News
  • Weather Widgets
  • user-avatar
    Login

    Hourly Weather Xilli

    Today, 30 March, Monday

    Time Temperature Precipitation Wind Pressure Humidity
    00:00 +8°C° 0 mm 2 mps 754 mmHg 68%
    01:00 +8°C° 0 mm 2 mps 754 mmHg 71%
    02:00 +8°C° 0 mm 2 mps 753 mmHg 74%
    03:00 +8°C° 0 mm 2 mps 753 mmHg 78%
    04:00 +8°C° 0 mm 2 mps 753 mmHg 80%
    05:00 +8°C° 0 mm 2 mps 753 mmHg 83%
    06:00 +8°C° 0 mm 3 mps 753 mmHg 85%
    07:00 +10°C° 0 mm 2 mps 753 mmHg 78%
    08:00 +12°C° 0 mm 2 mps 753 mmHg 71%
    09:00 +14°C° 0 mm 2 mps 752 mmHg 64%
    10:00 +15°C° 0 mm 2 mps 752 mmHg 61%
    11:00 +16°C° 0 mm 2 mps 752 mmHg 57%
    12:00 +18°C° 0 mm 2 mps 752 mmHg 54%
    13:00 +18°C° 0 mm 3 mps 751 mmHg 53%
    14:00 +18°C° 0 mm 3 mps 751 mmHg 52%
    15:00 +18°C° 0 mm 4 mps 751 mmHg 52%
    16:00 +17°C° 0 mm 4 mps 751 mmHg 57%
    17:00 +15°C° 0 mm 4 mps 751 mmHg 61%
    18:00 +13°C° 0 mm 4 mps 751 mmHg 66%
    19:00 +13°C° 0.1 mm 3 mps 752 mmHg 69%
    20:00 +13°C° 0.1 mm 3 mps 753 mmHg 72%
    21:00 +13°C° 0.1 mm 2 mps 753 mmHg 74%
    22:00 +13°C° 0 mm 2 mps 754 mmHg 75%
    23:00 +13°C° 0 mm 2 mps 754 mmHg 75%

    Tomorrow, 31 March, Tuesday

    Time Temperature Precipitation Wind Pressure Humidity
    00:00 +13°C° 0 mm 2 mps 755 mmHg 76%
    01:00 +13°C° 0 mm 2 mps 755 mmHg 74%
    02:00 +13°C° 0 mm 2 mps 755 mmHg 73%
    03:00 +12°C° 0 mm 3 mps 755 mmHg 71%
    04:00 +12°C° 0 mm 3 mps 756 mmHg 68%
    05:00 +12°C° 0 mm 4 mps 757 mmHg 65%
    06:00 +11°C° 0 mm 4 mps 757 mmHg 62%
    07:00 +13°C° 0 mm 4 mps 758 mmHg 57%
    08:00 +15°C° 0 mm 5 mps 758 mmHg 52%
    09:00 +16°C° 0 mm 5 mps 758 mmHg 47%
    10:00 +17°C° 0 mm 5 mps 758 mmHg 44%
    11:00 +20°C° 0 mm 5 mps 758 mmHg 41%
    12:00 +21°C° 0 mm 5 mps 758 mmHg 38%
    13:00 +21°C° 0 mm 4 mps 758 mmHg 39%
    14:00 +20°C° 0 mm 4 mps 758 mmHg 40%
    15:00 +20°C° 0 mm 3 mps 758 mmHg 42%
    16:00 +19°C° 0 mm 3 mps 758 mmHg 47%
    17:00 +17°C° 0 mm 4 mps 758 mmHg 53%
    18:00 +15°C° 0 mm 4 mps 759 mmHg 59%
    19:00 +14°C° 0 mm 4 mps 759 mmHg 63%
    20:00 +13°C° 0 mm 4 mps 760 mmHg 66%
    21:00 +13°C° 0 mm 4 mps 760 mmHg 70%
    22:00 +12°C° 0 mm 4 mps 760 mmHg 74%
    23:00 +12°C° 0 mm 4 mps 760 mmHg 77%

    Day after tomorrow, 1 April, Wednesday

    Time Temperature Precipitation Wind Pressure Humidity
    00:00 +12°C° 0 mm 4 mps 760 mmHg 80%
    01:00 +12°C° 0 mm 4 mps 760 mmHg 82%
    02:00 +11°C° 0 mm 4 mps 760 mmHg 84%
    03:00 +11°C° 0 mm 4 mps 759 mmHg 86%
    04:00 +11°C° 0 mm 4 mps 759 mmHg 86%
    05:00 +11°C° 0 mm 3 mps 760 mmHg 86%
    06:00 +11°C° 0 mm 3 mps 760 mmHg 86%
    07:00 +13°C° 0 mm 3 mps 760 mmHg 78%
    08:00 +14°C° 0 mm 4 mps 760 mmHg 71%
    09:00 +17°C° 0 mm 4 mps 760 mmHg 63%
    10:00 +17°C° 0 mm 4 mps 759 mmHg 62%
    11:00 +18°C° 0 mm 4 mps 759 mmHg 61%
    12:00 +17°C° 0 mm 5 mps 759 mmHg 60%
    13:00 +17°C° 0 mm 5 mps 758 mmHg 62%
    14:00 +17°C° 0 mm 5 mps 758 mmHg 64%
    15:00 +16°C° 0 mm 5 mps 758 mmHg 65%
    16:00 +15°C° 0 mm 5 mps 757 mmHg 69%
    17:00 +15°C° 0 mm 5 mps 757 mmHg 72%
    18:00 +14°C° 0 mm 5 mps 757 mmHg 75%
    19:00 +14°C° 0 mm 4 mps 757 mmHg 77%
    20:00 +13°C° 0 mm 4 mps 758 mmHg 79%
    21:00 +13°C° 0 mm 4 mps 758 mmHg 81%
    22:00 +13°C° 0.1 mm 4 mps 757 mmHg 83%
    23:00 +12°C° 0.1 mm 3 mps 757 mmHg 85%

    2 April, Thursday

    Time Temperature Precipitation Wind Pressure Humidity
    00:00 +12°C° 0.1 mm 3 mps 756 mmHg 86%
    01:00 +13°C° 0.2 mm 2 mps 756 mmHg 87%
    02:00 +13°C° 0.2 mm 2 mps 756 mmHg 88%
    03:00 +13°C° 0.2 mm 2 mps 755 mmHg 89%
    04:00 +13°C° 0.3 mm 2 mps 756 mmHg 89%
    05:00 +13°C° 0.3 mm 2 mps 756 mmHg 89%
    06:00 +13°C° 0.3 mm 2 mps 756 mmHg 89%
    07:00 +13°C° 0 mm 3 mps 756 mmHg 85%
    08:00 +14°C° 0 mm 3 mps 757 mmHg 80%
    09:00 +14°C° 0 mm 4 mps 757 mmHg 75%
    10:00 +15°C° 0 mm 4 mps 757 mmHg 72%
    11:00 +17°C° 0 mm 4 mps 757 mmHg 68%
    12:00 +18°C° 0 mm 4 mps 757 mmHg 65%
    13:00 +18°C° 0 mm 4 mps 757 mmHg 63%
    14:00 +18°C° 0 mm 4 mps 757 mmHg 62%
    15:00 +19°C° 0 mm 4 mps 757 mmHg 60%
    16:00 +16°C° 0 mm 5 mps 757 mmHg 66%
    17:00 +15°C° 0 mm 5 mps 758 mmHg 72%
    18:00 +14°C° 0 mm 5 mps 758 mmHg 77%
    19:00 +13°C° 0 mm 5 mps 759 mmHg 80%
    20:00 +13°C° 0 mm 5 mps 759 mmHg 82%
    21:00 +12°C° 0 mm 5 mps 760 mmHg 85%
    22:00 +12°C° 0 mm 4 mps 760 mmHg 86%
    23:00 +11°C° 0 mm 3 mps 760 mmHg 88%

    3 April, Friday

    Time Temperature Precipitation Wind Pressure Humidity
    00:00 +12°C° 0 mm 2 mps 760 mmHg 89%
    01:00 +11°C° 0 mm 3 mps 759 mmHg 90%
    02:00 +11°C° 0 mm 3 mps 759 mmHg 90%
    03:00 +11°C° 0 mm 3 mps 759 mmHg 91%
    04:00 +11°C° 0 mm 3 mps 759 mmHg 92%
    05:00 +11°C° 0 mm 3 mps 759 mmHg 92%
    06:00 +10°C° 0 mm 2 mps 760 mmHg 93%
    07:00 +12°C° 0 mm 3 mps 760 mmHg 87%
    08:00 +13°C° 0 mm 3 mps 760 mmHg 81%
    09:00 +14°C° 0 mm 3 mps 760 mmHg 74%
    10:00 +16°C° 0 mm 3 mps 760 mmHg 73%
    11:00 +15°C° 0 mm 4 mps 760 mmHg 71%
    12:00 +15°C° 0 mm 4 mps 759 mmHg 69%
    13:00 +15°C° 0 mm 4 mps 759 mmHg 70%
    14:00 +15°C° 0 mm 5 mps 759 mmHg 70%
    15:00 +15°C° 0 mm 5 mps 759 mmHg 71%
    16:00 +14°C° 0 mm 4 mps 759 mmHg 74%
    17:00 +14°C° 0 mm 4 mps 759 mmHg 78%
    18:00 +13°C° 0 mm 4 mps 759 mmHg 82%
    19:00 +13°C° 0 mm 3 mps 759 mmHg 85%
    20:00 +12°C° 0 mm 3 mps 760 mmHg 87%
    21:00 +12°C° 0 mm 3 mps 760 mmHg 90%
    22:00 +12°C° 0 mm 3 mps 760 mmHg 91%
    23:00 +11°C° 0 mm 3 mps 760 mmHg 92%

    4 April, Saturday

    Time Temperature Precipitation Wind Pressure Humidity
    00:00 +12°C° 0 mm 2 mps 760 mmHg 93%
    01:00 +11°C° 0 mm 3 mps 760 mmHg 93%
    02:00 +11°C° 0 mm 3 mps 759 mmHg 93%
    03:00 +11°C° 0 mm 3 mps 759 mmHg 93%
    04:00 +11°C° 0 mm 3 mps 759 mmHg 92%
    05:00 +11°C° 0 mm 4 mps 759 mmHg 92%
    06:00 +11°C° 0 mm 4 mps 759 mmHg 91%
    07:00 +12°C° 0 mm 4 mps 759 mmHg 87%
    08:00 +13°C° 0 mm 4 mps 759 mmHg 84%
    09:00 +14°C° 0 mm 4 mps 759 mmHg 80%
    10:00 +14°C° 0 mm 4 mps 759 mmHg 77%
    11:00 +15°C° 0 mm 4 mps 759 mmHg 75%
    12:00 +15°C° 0 mm 5 mps 759 mmHg 72%
    13:00 +15°C° 0 mm 4 mps 759 mmHg 71%
    14:00 +15°C° 0 mm 4 mps 759 mmHg 70%
    15:00 +16°C° 0 mm 3 mps 759 mmHg 70%
    16:00 +16°C° 0.2 mm 3 mps 759 mmHg 72%
    17:00 +15°C° 0.2 mm 2 mps 759 mmHg 74%
    18:00 +14°C° 0.2 mm 2 mps 760 mmHg 77%
    19:00 +14°C° 0.1 mm 2 mps 760 mmHg 79%
    20:00 +13°C° 0.1 mm 2 mps 761 mmHg 81%
    21:00 +13°C° 0.1 mm 2 mps 761 mmHg 83%
    22:00 +13°C° 0 mm 2 mps 761 mmHg 83%
    23:00 +12°C° 0 mm 3 mps 761 mmHg 83%
    Show more